Regional Weather Roundup
Issued by NWS Albany, NY

Home | Current Version | Previous Version | Text Only | Print | Product List | Glossary On
Versions: 1 2 3 4 5 6 7 8 9 10 11 12 13 14 15 16 17 18 19 20 21 22 23 24 25 26 27 28 29 30 31 32 33 34 35 36 37 38 39 40 41 42 43 44 45 46 47 48 49 50
000
ASUS41 KALY 221110
RWRALY

NEW YORK STATE HOURLY WEATHER ROUNDUP
NATIONAL WEATHER SERVICE ALBANY NY
700 AM EDT FRI MAY 22 2015

NOTE: "FAIR" INDICATES FEW OR NO CLOUDS BELOW 12,000 FEET WITH NO
SIGNIFICANT WEATHER AND/OR NO OBSTRUCTIONS TO VISIBILITY.

NYZ032-033-038>043-046>054-057>066-NYZ062>081-221200-
EAST


CITY           SKY/WX    TMP DP  RH WIND       PRES   REMARKS
ALBANY         MOSUNNY   53  39  59 S3        29.87R
GLENS FALLS    CLOUDY    50  43  77 SW5       29.84R
POUGHKEEPSIE   SUNNY     52  47  83 CALM      29.88R
NEWBURGH       SUNNY     50  46  87 W6        29.90S
MONTGOMERY     SUNNY     51  47  86 W6        29.89R
WHITE PLAINS   SUNNY     54  44  69 NW10      29.88R
ISLIP          PTSUNNY   54  49  83 NW7       29.86R
NEW YORK CITY  MOSUNNY   57  44  62 NW12      29.90R
CENTRAL PARK   SUNNY     56  42  59 CALM      29.93R
$$

NYZ005>009-017-018-044>046-055-056-221200-
CENTRAL


CITY           SKY/WX    TMP DP  RH WIND       PRES   REMARKS
FULTON         SUNNY     47  38  71 NW13G21   29.91R
SYRACUSE       MOSUNNY   53  39  59 W14       29.89R
ROME           MOSUNNY   45  42  89 CALM      29.90R
ELMIRA         PTSUNNY   46  41  82 W5        29.94R
BINGHAMTON     SUNNY     44  38  79 W9        29.91R
MONTICELLO     SUNNY     45  43  93 W3        29.92R
$$

NYZ026>034-041>043-221200-
NORTH


CITY           SKY/WX    TMP DP  RH WIND       PRES   REMARKS
WATERTOWN      SUNNY     48  36  63 N7        29.91R
FORT DRUM      NOT AVBL
MASSENA        MOSUNNY   48  37  65 NW9       29.88R
SARANAC LAKE   CLOUDY    45  36  70 W6        29.81R
PLATTSBURGH    CLOUDY    53  36  52 W5        29.81R
$$

NYZ001>004-010>016-019>021-221200-
WEST


CITY           SKY/WX    TMP DP  RH WIND       PRES   REMARKS
NIAGARA FALLS  MOSUNNY   47  33  58 W12       29.98R
BUFFALO        MOSUNNY   48  34  58 W9        29.98R
DUNKIRK        CLOUDY    49  38  65 SW9       30.00R
JAMESTOWN      MOSUNNY   45  37  76 NW3       30.00R
WELLSVILLE     SUNNY     45  35  68 W7        29.97R
ROCHESTER      MOSUNNY   51  34  52 NW12G21   29.96R
PENN YAN       PTSUNNY   53  37  54 W13       29.93R
$$

             KEY
       WCI = WIND CHILL INDEX
       VSB = VISIBILITY
       HX  = HEAT INDEX
$$



USA.gov is the U.S. government's official web portal to all federal, state and local government web resources and services.